Wind_Speed
43 41 42 37 39 38 40 43 44 41 40 36 34 33 32 31 27 28 31 33 29 27 25 23 20 17 20 23 25 22 25 28 29 31 31 29 27 27 27 28 31 32 33
46 41 37 37 41 39 40 40 42 41 40 37 35 34 33 32 29 31 33 34 29 25 22 20 19 18 18 20 20 21 21 22 25 27 25 24 25 25 26 27 27 27 28
51 53 45 41 38 41 39 40 40 39 38 38 37 34 35 33 30 32 32 36 28 24 22 21 20 19 20 21 21 19 20 23 23 22 24 24 23 22 21 20 20 21 23
56 56 54 47 43 39 38 38 38 38 38 36 35 36 34 32 33 33 38 33 25 24 21 22 19 19 21 21 20 21 19 20 19 20 21 20 16 14 13 13 12 14 14
60 59 58 51 49 42 36 37 38 39 38 37 37 37 35 33 35 37 38 27 25 24 20 21 19 19 19 16 18 17 19 17 18 18 17 16 13 8 6 7 9 11 14
63 59 63 59 48 46 37 35 36 39 39 38 38 39 39 40 40 40 33 25 24 25 21 21 18 16 14 16 16 16 17 15 15 14 16 14 11 9 10 11 12 13 15
61 62 65 62 46 44 37 35 33 35 37 37 38 39 39 39 33 28 26 25 25 24 21 23 20 17 15 16 14 15 14 13 12 12 10 8 8 9 10 9 10 9 8
59 65 67 64 48 38 34 33 36 36 37 37 38 37 34 30 28 25 26 26 25 21 19 23 19 20 15 14 13 13 12 11 10 9 6 5 3 6 9 8 6 6 7
63 62 63 65 54 37 33 31 33 34 35 36 37 35 30 27 26 25 27 27 24 20 20 24 18 17 15 13 10 12 9 10 10 8 6 6 5 5 5 4 5 5 4
58 58 59 60 50 44 31 30 32 33 34 35 34 29 28 27 27 25 28 27 24 21 20 20 18 16 16 14 10 11 7 8 10 10 9 6 6 6 6 6 6 4 2
57 61 59 59 53 44 39 31 33 35 36 35 32 29 29 30 27 26 28 25 24 23 22 25 20 16 15 13 11 10 9 9 13 14 12 10 8 7 8 6 3 2 2
62 67 64 62 51 42 40 30 36 38 37 36 33 32 32 31 29 27 27 26 26 26 23 25 20 18 17 15 12 12 12 10 13 15 13 10 8 8 8 4 3 4 4
65 68 66 65 54 44 39 36 38 39 37 36 35 35 33 33 29 28 27 27 25 27 26 30 23 22 19 17 14 14 13 11 11 12 13 12 9 7 6 5 4 4 3
71 70 68 67 61 39 38 35 39 38 35 37 35 33 33 34 30 29 28 28 26 29 30 29 26 24 21 20 18 18 13 12 10 11 9 10 10 9 7 6 6 6 5
73 74 66 54 47 40 38 38 38 38 37 35 34 34 33 30 31 30 29 27 26 31 32 31 28 25 24 23 23 21 17 15 12 10 9 9 9 10 9 9 10 9 7
74 67 62 47 40 39 39 39 38 38 37 35 36 34 31 30 31 31 29 26 24 33 32 30 27 24 24 23 23 24 20 16 14 13 12 11 9 7 5 3 5 8 8
75 61 49 50 45 40 40 41 39 37 38 37 38 32 31 32 31 32 28 25 23 35 31 29 28 26 25 25 23 25 22 18 18 16 13 14 11 8 6 5 5 7 9
72 60 47 48 46 40 40 45 39 38 38 39 35 31 31 34 33 32 26 25 25 30 33 33 30 28 26 26 25 23 22 21 20 18 16 16 15 15 13 11 11 10 10
71 60 47 53 44 39 39 45 41 40 37 36 33 28 33 34 35 34 25 25 25 28 32 30 30 28 26 26 27 24 22 22 20 19 20 19 17 16 16 15 15 16 15
71 60 46 46 48 38 40 43 41 40 36 35 30 29 33 33 33 34 27 24 25 27 31 31 31 32 28 28 27 26 23 23 17 15 15 15 15 14 16 18 19 18 16
73 63 50 45 45 45 41 42 43 41 40 38 31 35 33 32 31 31 31 31 36 33 34 32 33 32 26 30 30 29 28 22 20 16 14 15 17 18 18 19 21 18 17
74 66 54 46 49 45 41 43 42 42 43 38 35 35 33 34 32 32 35 36 37 39 43 41 37 32 29 30 34 33 30 28 29 22 18 18 19 23 22 22 22 19 18
67 60 55 48 51 48 46 44 42 42 41 32 29 33 35 32 32 33 39 42 45 42 43 42 39 34 31 31 34 30 30 33 31 27 25 24 25 26 25 25 25 23 22
55 56 58 53 54 51 51 45 43 42 42 37 37 41 40 37 33 38 39 43 44 44 44 45 43 38 32 32 33 32 32 33 31 29 31 30 28 27 27 28 26 26 28
58 50 58 56 55 57 52 46 45 44 45 39 38 39 34 33 31 35 39 41 41 37 46 48 47 43 37 34 34 35 34 37 35 33 33 33 28 26 27 27 25 28 32
59 52 63 63 58 60 56 50 46 46 48 42 39 38 36 36 37 35 39 41 43 44 42 44 45 44 37 36 36 34 34 35 37 36 33 30 30 30 30 26 27 30 31
Wind_Direction
298 297 296 289 285 284 282 284 286 285 286 290 292 288 285 289 295 299 310 308 308 283 279 272 258 259 262 262 262 266 267 267 271 273 274 274 272 268 266 267 265 267 268
298 299 298 296 290 289 287 283 281 282 283 285 287 285 284 288 292 300 306 311 306 285 278 265 259 263 268 263 262 270 268 269 275 280 276 276 275 275 275 272 270 269 268
300 301 298 297 295 292 290 285 283 284 283 285 284 282 283 285 294 300 303 309 303 281 274 262 260 260 269 270 270 281 284 287 283 277 280 282 275 271 269 268 266 265 266
309 300 298 302 303 302 290 285 283 282 283 284 281 280 281 287 295 295 305 301 293 275 271 254 261 260 269 276 278 287 289 284 282 282 287 283 280 276 268 263 267 270 269
311 304 302 304 301 300 293 285 286 285 284 281 279 277 283 285 291 295 303 291 280 268 259 250 261 264 270 273 281 286 287 289 293 293 293 293 290 289 290 308 307 298 289
309 300 300 305 300 300 297 288 280 281 281 279 278 276 279 283 289 292 291 282 269 264 252 242 253 258 269 278 277 278 289 290 292 303 296 292 301 310 325 312 309 299 286
303 303 299 308 305 299 298 286 278 276 276 275 278 278 277 284 281 285 281 278 267 264 249 238 247 252 262 266 263 279 285 284 294 300 296 299 303 297 300 293 290 271 268
294 299 298 303 306 297 295 284 272 273 277 277 277 276 278 277 275 278 274 267 262 253 242 231 242 245 255 246 266 281 277 275 276 271 273 257 245 257 271 256 239 245 249
297 294 293 298 307 295 295 288 270 266 269 272 273 272 270 267 276 274 265 258 254 241 236 230 238 233 241 240 257 262 258 255 248 231 212 194 196 215 227 218 206 205 174
294 292 293 296 302 289 291 288 269 266 268 270 273 267 259 264 271 272 259 251 243 234 223 222 232 234 230 232 243 244 243 244 221 202 186 195 190 194 191 204 195 188 165
290 294 293 294 301 283 284 289 272 268 267 269 267 258 258 265 271 265 249 245 236 232 223 222 224 229 228 225 235 223 226 224 211 195 195 188 177 191 194 188 139 102 116
288 290 290 294 300 275 279 279 270 270 266 265 260 259 260 265 269 256 240 239 234 230 224 212 221 218 219 219 227 201 209 215 203 205 213 206 196 197 190 185 154 128 105
283 285 291 290 295 275 274 273 267 268 263 260 259 257 260 266 256 234 231 232 234 228 224 217 219 218 212 216 217 190 203 199 204 200 204 208 219 208 201 197 177 183 184
282 284 289 290 286 268 267 264 267 265 259 255 251 252 259 265 238 225 225 227 230 226 222 215 217 216 211 214 212 194 193 194 193 199 200 202 197 199 210 206 217 217 226
290 282 287 286 282 260 258 260 262 261 255 250 250 255 263 248 224 220 222 227 224 223 224 222 211 212 215 213 214 205 194 191 185 191 197 208 204 205 216 234 255 251 245
288 280 282 275 268 251 250 257 257 259 251 249 250 254 254 229 217 217 221 223 219 218 220 219 209 219 219 215 217 211 208 202 201 198 185 185 196 213 229 268 271 276 264
283 276 277 260 254 252 246 250 255 252 246 247 248 252 244 221 216 218 217 216 212 213 220 221 216 216 224 219 222 211 215 218 213 213 211 215 210 210 237 265 280 276 277
276 272 255 257 254 245 241 248 248 243 243 248 245 253 233 220 215 218 215 210 202 210 216 221 223 220 221 219 220 218 212 215 217 217 222 225 231 226 232 241 248 264 273
267 266 244 251 246 239 243 249 247 240 242 241 243 248 228 222 217 216 209 200 198 214 217 218 225 226 221 220 218 220 219 218 219 225 230 230 234 246 245 253 261 262 264
261 260 257 250 248 237 240 245 245 237 239 236 243 230 228 222 217 216 203 202 221 226 224 226 228 233 234 217 217 222 221 220 218 221 229 230 233 245 253 249 255 268 268
255 257 245 238 237 235 235 242 236 233 232 231 230 221 221 219 215 212 194 210 223 225 229 233 236 241 238 224 213 219 225 223 223 229 242 246 249 256 260 255 253 258 265
248 247 220 230 236 227 230 241 230 230 227 229 231 220 215 213 214 199 198 213 225 218 228 236 238 242 246 234 220 218 221 227 231 235 249 259 262 265 267 264 260 262 250
245 242 209 224 230 223 229 233 227 231 226 232 237 226 224 213 212 198 194 205 222 224 229 236 240 244 245 239 225 224 222 225 234 240 245 259 270 274 271 275 268 260 258
235 235 206 217 223 223 226 230 226 231 223 227 222 216 221 218 210 202 206 206 214 217 223 230 240 243 244 237 226 226 237 229 224 234 243 258 275 270 276 277 274 265 266
241 227 206 215 222 221 224 228 226 227 223 227 224 220 220 209 203 199 204 209 208 207 215 226 239 243 241 235 228 229 235 233 232 237 239 255 265 270 284 275 272 270 271
236 222 203 207 217 217 223 224 222 224 224 224 223 215 216 209 203 206 208 206 205 210 216 221 232 242 241 238 231 233 234 240 245 251 254 256 261 266 272 269 272 271 269
Height
10836 10836 10838 10838 10835 10836 10833 10830 10828 10829 10829 10830 10829 10828 10827 10826 10824 10823 10820 10819 10817 10816 10815 10814 10814 10814 10814 10815 10816 10818 10818 10819 10819 10819 10819 10820 10820 10820 10820 10820 10820 10821 10821
10828 10829 10831 10831 10830 10828 10828 10826 10823 10822 10821 10822 10821 10821 10820 10820 10819 10817 10815 10813 10812 10811 10811 10811 10811 10812 10812 10812 10813 10814 10815 10815 10814 10814 10814 10814 10814 10814 10814 10814 10814 10814 10815
10821 10818 10822 10823 10822 10822 10819 10819 10817 10816 10814 10814 10813 10814 10813 10813 10812 10811 10810 10808 10807 10806 10806 10806 10807 10808 10808 10809 10809 10809 10810 10810 10810 10809 10809 10810 10809 10809 10809 10809 10809 10809 10809
10812 10807 10810 10815 10815 10813 10813 10811 10811 10808 10807 10807 10807 10806 10806 10806 10805 10805 10804 10803 10802 10802 10803 10803 10803 10804 10804 10805 10805 10805 10806 10807 10806 10806 10805 10805 10805 10805 10805 10806 10807 10806 10805
10804 10797 10795 10804 10806 10804 10804 10802 10801 10800 10799 10799 10800 10799 10799 10799 10798 10798 10798 10797 10797 10798 10799 10800 10800 10800 10801 10802 10802 10802 10802 10802 10801 10801 10801 10800 10801 10802 10802 10802 10802 10803 10803
10796 10787 10781 10789 10795 10795 10795 10795 10793 10792 10791 10790 10791 10791 10791 10792 10791 10791 10791 10791 10791 10793 10794 10796 10797 10797 10799 10799 10800 10800 10799 10798 10797 10798 10798 10798 10798 10798 10799 10799 10800 10800 10801
10788 10784 10774 10777 10783 10784 10785 10785 10785 10784 10783 10783 10782 10783 10784 10784 10784 10784 10784 10785 10784 10788 10790 10792 10794 10794 10796 10797 10798 10797 10796 10796 10796 10796 10795 10796 10796 10797 10798 10798 10799 10799 10799
10781 10777 10770 10770 10774 10773 10775 10776 10776 10775 10775 10774 10774 10775 10776 10777 10778 10777 10777 10778 10779 10783 10786 10788 10790 10791 10793 10794 10795 10795 10795 10795 10795 10795 10795 10795 10796 10797 10798 10798 10799 10799 10800
10774 10769 10764 10760 10765 10763 10765 10765 10765 10766 10766 10766 10767 10768 10769 10769 10770 10770 10770 10772 10774 10778 10782 10784 10786 10789 10790 10792 10793 10793 10793 10794 10794 10794 10794 10795 10796 10797 10797 10798 10800 10800 10801
10763 10759 10755 10752 10757 10753 10756 10757 10756 10757 10758 10758 10759 10759 10760 10762 10763 10764 10764 10766 10768 10773 10778 10780 10783 10786 10787 10789 10790 10791 10791 10792 10792 10793 10794 10795 10796 10796 10797 10798 10800 10801 10802
10750 10747 10748 10744 10748 10745 10745 10747 10747 10747 10749 10749 10750 10751 10752 10754 10756 10757 10758 10760 10763 10768 10773 10776 10779 10782 10784 10786 10788 10789 10790 10790 10791 10792 10792 10793 10795 10796 10797 10798 10800 10801 10802
10737 10736 10738 10734 10737 10738 10737 10737 10737 10738 10739 10741 10743 10744 10745 10747 10750 10752 10753 10755 10758 10762 10768 10773 10775 10778 10780 10782 10785 10787 10788 10789 10790 10791 10792 10793 10794 10795 10797 10798 10799 10800 10800
10724 10721 10724 10724 10725 10728 10729 10728 10727 10729 10730 10733 10735 10736 10738 10740 10743 10745 10747 10749 10753 10757 10762 10768 10771 10774 10777 10779 10782 10785 10786 10787 10788 10789 10790 10791 10793 10794 10795 10796 10797 10799 10799
10713 10711 10709 10711 10714 10716 10718 10718 10718 10720 10722 10725 10727 10729 10731 10733 10735 10738 10740 10744 10748 10752 10757 10763 10766 10770 10773 10776 10779 10781 10784 10785 10786 10787 10788 10790 10791 10793 10794 10795 10796 10797 10797
10700 10700 10699 10695 10701 10705 10707 10708 10708 10712 10713 10717 10719 10721 10723 10725 10729 10733 10735 10740 10744 10748 10752 10757 10762 10766 10768 10772 10775 10778 10780 10783 10783 10785 10786 10788 10789 10791 10793 10793 10794 10795 10796
10683 10686 10686 10684 10687 10694 10697 10697 10698 10702 10704 10708 10711 10713 10715 10718 10723 10727 10730 10735 10740 10744 10748 10753 10758 10762 10765 10768 10771 10775 10777 10780 10781 10783 10784 10786 10788 10789 10790 10791 10792 10792 10793
10666 10672 10674 10672 10675 10682 10685 10687 10689 10691 10696 10699 10703 10705 10708 10712 10717 10720 10724 10729 10733 10739 10744 10749 10753 10757 10761 10765 10768 10772 10774 10776 10778 10780 10782 10783 10784 10786 10788 10789 10789 10790 10790
10649 10655 10658 10660 10664 10669 10673 10677 10679 10682 10687 10691 10694 10698 10701 10704 10709 10714 10720 10724 10729 10733 10739 10743 10747 10752 10756 10760 10763 10767 10771 10774 10775 10777 10778 10779 10781 10783 10784 10785 10786 10787 10788
10630 10638 10644 10645 10650 10657 10660 10665 10671 10675 10679 10683 10687 10690 10694 10697 10702 10706 10714 10720 10725 10729 10734 10738 10742 10746 10752 10756 10760 10763 10766 10769 10771 10772 10774 10775 10777 10779 10780 10781 10782 10782 10783
10609 10620 10628 10634 10639 10644 10648 10656 10663 10667 10671 10675 10678 10681 10685 10690 10695 10701 10708 10716 10721 10726 10730 10733 10737 10740 10746 10752 10754 10757 10760 10763 10767 10769 10770 10771 10773 10774 10776 10777 10777 10778 10779
10589 10602 10614 10620 10625 10631 10636 10644 10650 10655 10660 10663 10667 10671 10676 10683 10687 10696 10701 10712 10718 10722 10724 10729 10732 10735 10740 10746 10749 10751 10754 10758 10761 10764 10766 10767 10769 10770 10771 10771 10772 10773 10774
10570 10583 10597 10605 10611 10619 10624 10632 10638 10642 10648 10653 10657 10665 10670 10674 10682 10688 10696 10705 10711 10716 10719 10723 10727 10730 10735 10738 10743 10746 10750 10752 10755 10758 10760 10762 10764 10765 10766 10766 10767 10768 10769
10550 10565 10579 10590 10597 10605 10611 10618 10626 10632 10641 10648 10654 10661 10665 10667 10674 10682 10688 10697 10704 10709 10712 10715 10720 10724 10728 10731 10735 10742 10743 10745 10749 10753 10755 10756 10758 10759 10759 10760 10762 10762 10763
10533 10546 10560 10573 10583 10591 10598 10607 10616 10623 10630 10636 10641 10648 10652 10657 10665 10672 10683 10687 10695 10701 10706 10710 10711 10716 10721 10724 10728 10733 10737 10740 10744 10746 10749 10750 10752 10753 10754 10754 10755 10757 10757
10516 10532 10544 10557 10569 10578 10587 10596 10604 10612 10618 10625 10633 10640 10645 10651 10658 10666 10674 10680 10688 10694 10700 10705 10706 10709 10714 10718 10721 10725 10730 10733 10737 10739 10741 10744 10746 10747 10747 10748 10750 10750 10750
10501 10513 10527 10541 10555 10565 10574 10582 10592 10601 10605 10616 10624 10630 10636 10643 10651 10657 10664 10670 10677 10685 10691 10698 10701 10703 10708 10712 10714 10719 10723 10725 10727 10731 10733 10737 10739 10741 10741 10742 10743 10743 10743